This is the latest recevied weather packets stored in our database for station/object N9CQS-15. If no packets are shown the sender has not sent any weather packets the latest 10 day(s).
| Time | Temp. | Humidity | Pressure | Rain* | Wind** | Luminosity | Snow |
|---|---|---|---|---|---|---|---|
| 1777652942 | 11.11° C | 61% | 1018.1 hPa | 0 mm | - | - | - |
| 1777652342 | 12.22° C | 60% | 1017.9 hPa | 0 mm | - | - | - |
| 1777651742 | 11.67° C | 60% | 1018 hPa | 0 mm | - | - | - |
| 1777651142 | 11.11° C | 58% | 1018.1 hPa | 0 mm | - | - | - |
| 1777650542 | 11.11° C | 63% | 1018 hPa | 0 mm | - | - | - |
| 1777649941 | 10° C | 65% | 1017.9 hPa | 0 mm | - | - | - |
| 1777649341 | 10.56° C | 63% | 1017.7 hPa | 0 mm | - | - | - |
| 1777648742 | 10° C | 68% | 1017.7 hPa | 0 mm | - | - | - |
| 1777648142 | 9.44° C | 69% | 1017.8 hPa | 0 mm | - | - | - |
| 1777647542 | 8.89° C | 71% | 1017.8 hPa | 0 mm | - | - | - |
| 1777646942 | 8.89° C | 70% | 1017.8 hPa | 0 mm | - | - | - |
| 1777646342 | 8.89° C | 72% | 1017.7 hPa | 0 mm | - | - | - |
| 1777645742 | 8.33° C | 74% | 1017.6 hPa | 0 mm | - | - | - |
| 1777645142 | 8.33° C | 77% | 1017.6 hPa | 0 mm | - | - | - |
| 1777644542 | 7.78° C | 78% | 1017.6 hPa | 0 mm | - | - | - |
| 1777643941 | 7.78° C | 78% | 1017.6 hPa | 0 mm | - | - | - |
| 1777643341 | 7.78° C | 77% | 1017.5 hPa | 0 mm | - | - | - |
| 1777642741 | 7.78° C | 79% | 1017.4 hPa | 0 mm | - | - | - |
| 1777642142 | 7.22° C | 82% | 1017.3 hPa | 0 mm | - | - | - |
| 1777641542 | 7.22° C | 80% | 1017.3 hPa | 0 mm | - | - | - |
| 1777640942 | 7.22° C | 83% | 1017.2 hPa | 0 mm | - | - | - |
| 1777640341 | 7.22° C | 83% | 1017.1 hPa | 0 mm | - | - | - |
| 1777639742 | 7.78° C | 82% | 1017 hPa | 0 mm | - | - | - |
| 1777639142 | 7.78° C | 83% | 1016.7 hPa | 0 mm | - | - | - |
| 1777638541 | 7.22° C | 85% | 1016.5 hPa | 0 mm | - | - | - |
* Rain latest hour (hover to see other rain measurements)
** Current wind speed in m/s (hover to see current wind gust speed)